Storm Lake, IA

4:23 AM CST on February 10, 2016 (GMT -0600)
Storm Lake Municipal

Weather History for KSLB - May, 2013

Change the Weather History Date:

Friday, May 24, 2013

  Actual Average Record
Temperature  
Mean Temperature 60 °F -  
Max Temperature 75 °F 71 °F 87 °F (2005)
Min Temperature 44 °F 51 °F 41 °F (2002)
Degree Days  
Heating Degree Days 6    
Growing Degree Days 10 (Base 50)    
Moisture  
Dew Point 43 °F    
Average Humidity 55    
Maximum Humidity 81    
Minimum Humidity 33    
Precipitation  
Precipitation 0.00 in - - ()
Sea Level Pressure  
Sea Level Pressure 30.22 in    
Wind  
Wind Speed 14 mph (SE)    
Max Wind Speed 26 mph    
Max Gust Speed 33 mph    
Visibility 10 miles    
Events      
Averages and records for this station are not official NWS values.
T = Trace of Precipitation, MM = Missing Value Source: NWS Daily Summary

Daily Weather History Graph

Daily Weather History Graph

Search for Another Location

Airport or City:

Trip Planner

Search our weather history database for the weather conditions in past years. The results will help you decide how hot, cold, wet, or windy it might be!

Date:

Astronomy

May. 24, 2013 Rise Set
Actual Time 5:50 AM CDT 8:45 PM CDT
Civil Twilight 5:17 AM CDT 9:18 PM CDT
Nautical Twilight 4:35 AM CDT 10:01 PM CDT
Astronomical Twilight 3:45 AM CDT 10:51 PM CDT
Moon 8:28 PM CDT (5/24) 5:24 AM CDT (5/24)
Length of Visible Light 16h 01m
Length of Day
14h 54m
Full, 100% of the Moon is Illuminated
May 24
Full
May 24
Full
May 31
Last Quarter
Jun 8
New
Jun 16
First Quarter

Hourly Weather History & Observations

Time (CDT) Temp. Windchill Dew Point Humidity Pressure Visibility Wind Dir Wind Speed Gust Speed Precip Events Conditions
12:15 AM 50.0 °F - 39.2 °F 66% 30.29 in 10.0 mi East 9.2 mph - N/A   Clear
12:35 AM 48.2 °F - 41.0 °F 76% 30.28 in 10.0 mi East 10.4 mph - N/A   Clear
12:55 AM 48.2 °F - 41.0 °F 76% 30.29 in 10.0 mi East 10.4 mph - N/A   Clear
1:15 AM 48.2 °F - 39.2 °F 71% 30.29 in 10.0 mi East 10.4 mph - N/A   Clear
1:35 AM 48.2 °F - 39.2 °F 71% 30.29 in 10.0 mi East 10.4 mph - N/A   Clear
1:55 AM 48.2 °F - 39.2 °F 71% 30.29 in 10.0 mi East 9.2 mph - N/A   Clear
2:15 AM 48.2 °F - 39.2 °F 71% 30.29 in 10.0 mi East 10.4 mph - N/A   Clear
2:35 AM 48.2 °F - 39.2 °F 71% 30.29 in 10.0 mi East 10.4 mph - N/A   Clear
2:55 AM 48.2 °F - 39.2 °F 71% 30.29 in 10.0 mi ESE 8.1 mph - N/A   Clear
3:15 AM 48.2 °F - 39.2 °F 71% 30.29 in 10.0 mi East 9.2 mph - N/A   Clear
3:35 AM 48.2 °F - 37.4 °F 66% 30.28 in 10.0 mi ESE 11.5 mph - N/A   Clear
3:55 AM 48.2 °F - 37.4 °F 66% 30.28 in 10.0 mi ESE 11.5 mph - N/A   Clear
4:15 AM 46.4 °F 41.9 °F 37.4 °F 71% 30.29 in 10.0 mi ESE 9.2 mph - N/A   Clear
4:35 AM 48.2 °F - 37.4 °F 66% 30.28 in 10.0 mi ESE 10.4 mph - N/A   Clear
4:55 AM 46.4 °F 41.5 °F 37.4 °F 71% 30.28 in 10.0 mi ESE 10.4 mph - N/A   Clear
5:15 AM 46.4 °F 40.7 °F 37.4 °F 71% 30.28 in 10.0 mi ESE 12.7 mph - N/A   Clear
5:35 AM 44.6 °F 39.2 °F 37.4 °F 76% 30.29 in 10.0 mi SE 10.4 mph - N/A   Clear
5:55 AM 44.6 °F 39.2 °F 37.4 °F 76% 30.29 in 10.0 mi SE 10.4 mph - N/A   Clear
6:15 AM 44.6 °F 39.2 °F 37.4 °F 76% 30.29 in 10.0 mi SE 10.4 mph - N/A   Clear
6:35 AM 44.6 °F 39.7 °F 39.2 °F 81% 30.31 in 10.0 mi SSE 9.2 mph - N/A   Clear
6:55 AM 48.2 °F - 39.2 °F 71% 30.31 in 10.0 mi SE 9.2 mph 16.1 mph N/A   Clear
7:15 AM 48.2 °F - 39.2 °F 71% 30.31 in 10.0 mi SE 11.5 mph - N/A   Clear
7:35 AM 50.0 °F - 41.0 °F 71% 30.31 in 10.0 mi SE 10.4 mph - N/A   Clear
7:55 AM 51.8 °F - 41.0 °F 67% 30.31 in 10.0 mi SE 12.7 mph - N/A   Clear
8:15 AM 53.6 °F - 41.0 °F 62% 30.31 in 10.0 mi SE 13.8 mph - N/A   Clear
8:35 AM 55.4 °F - 41.0 °F 58% 30.31 in 10.0 mi North - - N/A   Clear
8:55 AM 57.2 °F - 42.8 °F 59% 30.31 in 10.0 mi SSE 19.6 mph - N/A   Clear
9:15 AM 59.0 °F - 42.8 °F 55% 30.30 in 10.0 mi SSE 20.7 mph - N/A   Clear
9:35 AM 60.8 °F - 42.8 °F 52% 30.31 in 10.0 mi SSE 19.6 mph - N/A   Clear
9:55 AM 62.6 °F - 42.8 °F 48% 30.30 in 10.0 mi SSE 18.4 mph 25.3 mph N/A   Clear
10:15 AM 62.6 °F - 42.8 °F 48% 30.29 in 10.0 mi SSE 18.4 mph 26.5 mph N/A   Clear
10:35 AM 64.4 °F - 41.0 °F 42% 30.28 in 10.0 mi SSE 23.0 mph - N/A   Clear
10:55 AM 64.4 °F - 41.0 °F 42% 30.27 in 10.0 mi SSE 20.7 mph 27.6 mph N/A   Clear
11:15 AM 64.4 °F - 42.8 °F 45% 30.27 in 10.0 mi SSE 18.4 mph 27.6 mph N/A   Clear
11:35 AM 68.0 °F - 42.8 °F 40% 30.26 in 10.0 mi SSE 18.4 mph 25.3 mph N/A   Clear
11:55 AM 68.0 °F - 42.8 °F 40% 30.25 in 10.0 mi SSE 17.3 mph 27.6 mph N/A   Clear
12:15 PM 68.0 °F - 41.0 °F 37% 30.24 in 10.0 mi SSE 18.4 mph 27.6 mph N/A   Clear
12:35 PM 69.8 °F - 42.8 °F 38% 30.23 in 10.0 mi SSE 19.6 mph 27.6 mph N/A   Clear
12:55 PM 69.8 °F - 42.8 °F 38% 30.22 in 10.0 mi SSE 23.0 mph 29.9 mph N/A   Clear
1:15 PM 69.8 °F - 42.8 °F 38% 30.22 in 10.0 mi South 20.7 mph 27.6 mph N/A   Clear
1:35 PM 71.6 °F - 42.8 °F 35% 30.21 in 10.0 mi South 24.2 mph - N/A   Clear
1:55 PM 71.6 °F - 42.8 °F 35% 30.21 in 10.0 mi South 23.0 mph 28.8 mph N/A   Partly Cloudy
2:15 PM 73.4 °F - 42.8 °F 33% 30.20 in 10.0 mi South 21.9 mph 29.9 mph N/A   Partly Cloudy
2:35 PM 75.2 °F - 44.6 °F 34% 30.19 in 10.0 mi South 24.2 mph 32.2 mph N/A   Clear
2:55 PM 73.4 °F - 44.6 °F 36% 30.18 in 10.0 mi South 24.2 mph 31.1 mph N/A   Partly Cloudy
3:15 PM 73.4 °F - 44.6 °F 36% 30.18 in 10.0 mi South 21.9 mph 32.2 mph N/A   Partly Cloudy
3:35 PM 75.2 °F - 44.6 °F 34% 30.16 in 10.0 mi South 24.2 mph 33.4 mph N/A   Scattered Clouds
3:55 PM 75.2 °F - 46.4 °F 36% 30.15 in 10.0 mi South 23.0 mph 29.9 mph N/A   Partly Cloudy
4:15 PM 73.4 °F - 44.6 °F 36% 30.15 in 10.0 mi South 23.0 mph 31.1 mph N/A   Partly Cloudy
4:35 PM 71.6 °F - 44.6 °F 38% 30.13 in 10.0 mi South 25.3 mph - N/A   Scattered Clouds
4:55 PM 69.8 °F - 46.4 °F 43% 30.13 in 10.0 mi South 24.2 mph 29.9 mph N/A   Light Drizzle
5:15 PM 69.8 °F - 46.4 °F 43% 30.13 in 10.0 mi South 23.0 mph 29.9 mph N/A   Overcast
5:35 PM 69.8 °F - 46.4 °F 43% 30.11 in 10.0 mi South 24.2 mph - N/A   Light Drizzle
5:55 PM 68.0 °F - 48.2 °F 49% 30.11 in 10.0 mi SSE 21.9 mph 28.8 mph N/A   Light Drizzle
6:15 PM 68.0 °F - 48.2 °F 49% 30.12 in 10.0 mi SSE 17.3 mph 24.2 mph N/A   Light Drizzle
6:35 PM 68.0 °F - 48.2 °F 49% 30.12 in 10.0 mi SE 17.3 mph - N/A   Mostly Cloudy
6:55 PM 68.0 °F - 48.2 °F 49% 30.12 in 10.0 mi SE 13.8 mph 20.7 mph N/A   Overcast
7:15 PM 68.0 °F - 48.2 °F 49% 30.12 in 10.0 mi SE 12.7 mph 20.7 mph N/A   Overcast
7:35 PM 66.2 °F - 48.2 °F 52% 30.12 in 10.0 mi SE 12.7 mph 23.0 mph N/A   Overcast
7:55 PM 66.2 °F - 48.2 °F 52% 30.12 in 10.0 mi SE 16.1 mph - N/A   Overcast
8:15 PM 66.2 °F - 46.4 °F 49% 30.13 in 10.0 mi SE 18.4 mph - N/A   Overcast
8:35 PM 64.4 °F - 46.4 °F 52% 30.13 in 10.0 mi SE 16.1 mph - N/A   Overcast
8:55 PM 64.4 °F - 46.4 °F 52% 30.13 in 10.0 mi SE 18.4 mph 25.3 mph N/A   Overcast
9:15 PM 64.4 °F - 46.4 °F 52% 30.14 in 10.0 mi SE 15.0 mph 21.9 mph N/A   Overcast
9:35 PM 64.4 °F - 48.2 °F 56% 30.15 in 10.0 mi SE 17.3 mph - N/A   Overcast
9:55 PM 62.6 °F - 48.2 °F 59% 30.16 in 10.0 mi SE 17.3 mph - N/A   Light Drizzle
10:15 PM 62.6 °F - 46.4 °F 55% 30.17 in 10.0 mi SE 18.4 mph 25.3 mph N/A   Overcast
10:35 PM 62.6 °F - 46.4 °F 55% 30.17 in 10.0 mi SE 20.7 mph 28.8 mph N/A   Overcast
10:55 PM 60.8 °F - 46.4 °F 59% 30.17 in - SE 20.7 mph - N/A   Overcast
11:15 PM 60.8 °F - 46.4 °F 59% 30.16 in 10.0 mi SE 20.7 mph 27.6 mph N/A   Overcast
11:35 PM 60.8 °F - 46.4 °F 59% 30.15 in 10.0 mi SSE 26.5 mph 33.4 mph N/A   Overcast
11:55 PM 60.8 °F - 46.4 °F 59% 30.15 in 10.0 mi SE 21.9 mph 31.1 mph N/A   Overcast